Miscellaneous Local Product
Issued by NWS Hastings, NE

Home | Current Version | Previous Version | Graphics & Text | Print | Product List | Glossary On
Versions: 1 2 3 4 5 6 7 8 9 10 11 12 13 14 15 16 17 18 19 20 21 22 23 24 25 26 27 28 29 30 31 32 33 34 35 36 37 38 39 40 41 42 43 44 45 46 47 48 49 50
000
AXUS43 KGID 300102
MISGRI

GID CWA HOURLY WEATHER ROUNDUP
NATIONAL WEATHER SERVICE HASTINGS NE
700 PM CST THU JAN 29 2015

NOTE: "FAIR" INDICATES FEW OR NO CLOUDS BELOW 12,000 FEET WITH NO
SIGNIFICANT WEATHER AND/OR OBSTRUCTIONS TO VISIBILITY.

...SOUTH CENTRAL NEBRASKA...

CITY           SKY/WX    TMP DP  RH WIND       PRES   REMARKS
GRAND ISLAND   CLEAR     30  19  63 CALM      30.50R
HASTINGS       CLEAR     30  16  56 NW5       30.49R WCI  25
KEARNEY        CLEAR     34  18  51 W5        30.49R WCI  30
ORD            CLEAR     30  19  63 CALM      30.48R
YORK           CLEAR     32  23  69 N7        30.49R WCI  26
AURORA         CLEAR     32  21  64 N8        30.49R WCI  24
LEXINGTON      CLEAR     31  19  60 CALM      30.48R
HOLDREGE       CLEAR     33  19  56 CALM      30.48R
HEBRON         CLEAR     36  21  55 NW3       30.49R

...NEBRASKA PANHANDLE...

CITY           SKY/WX    TMP DP  RH WIND       PRES   REMARKS
CHADRON        CLEAR     31  20  63 SE7       30.40F WCI  24
ALLIANCE       CLEAR     27  17  66 SE5       30.42R WCI  22
SCOTTSBLUFF    PTCLDY    32  24  72 E7        30.40F WCI  26
SIDNEY         PTCLDY    29  16  58 SE8       30.42F WCI  21

...WESTERN AND NORTH CENTRAL NEBRASKA...

CITY           SKY/WX    TMP DP  RH WIND       PRES   REMARKS
VALENTINE      CLEAR     34  19  54 NE5       30.45R WCI  30
AINSWORTH      CLEAR     31  20  64 NE6       30.45S WCI  25
ONEILL         CLEAR     31  23  72 N8        30.48R WCI  24
BROKEN BOW     CLEAR     27  17  66 N3        30.47R
IMPERIAL       PTCLDY    34  18  52 CALM      30.47S
NORTH PLATTE   CLEAR     30  14  51 CALM      30.47R
MCCOOK         CLEAR     37  20  50 NW5       30.48R WCI  33

...EASTERN NEBRASKA...

CITY           SKY/WX    TMP DP  RH WIND       PRES   REMARKS
NORFOLK        CLEAR     30  23  75 N8        30.49R WCI  22
SO SIOUX CITY  CLOUDY    32  22  66 N20       30.51R WCI  20
TEKAMAH        MOCLDY    31  22  69 NW12      30.51R WCI  22
COLUMBUS       CLEAR     28  18  64 N6        30.52R WCI  22
ALBION         CLEAR     31  22  67 CALM      30.49R
OMAHA EPPLEY   MOCLDY    34  24  67 N14       30.49R WCI  25
OFFUTT AFB     PTCLDY    34  24  65 NW7       30.48R WCI  28
MILLARD        CLEAR     36  25  64 N6        30.50R WCI  31
LINCOLN        CLEAR     30  22  72 NW3       30.52R
NEBRASKA CITY  CLEAR     31  20  64 NW7       30.48R WCI  24
BEATRICE       CLEAR     30  22  72 NE3       30.49R
FALLS CITY     CLEAR     30  22  72 NW5       30.50R WCI  25

...NORTHERN KANSAS...

CITY           SKY/WX    TMP DP  RH WIND       PRES   REMARKS
GOODLAND       MOCLDY    32  20  61 E7        30.47S WCI  26
HILL CITY      PTCLDY    30  19  63 NW5       30.50R WCI  25
NORTON         CLEAR     34  18  51 NW3       30.49
PHILLIPSBURG   CLEAR     39  23  52 W3        30.51R
SMITH CENTER   CLEAR     36  21  55 N6        30.51R WCI  31
BELOIT         CLEAR     32  21  64 CALM      30.50R
HAYS           PTCLDY    37  18  44 N6        30.50S WCI  33
RUSSELL        PTCLDY    39  24  55 N8        30.49R WCI  33
CONCORDIA      CLEAR     38  24  57 NW5       30.50R WCI  34
SALINA         FAIR      38  24  57 N7        30.51R WCI  33
TOPEKA         CLEAR     35  24  64 N7        30.51R WCI  29



USA.gov is the U.S. government's official web portal to all federal, state and local government web resources and services.